Flag for Fiji Weather past 2 weeks in Lautoka, Fiji

Now
81 °F

Partly cloudy.


Feels Like: 85 °F
Forecast: 79 / 87 °F
Wind: 6 mph from East

Location: Nandi

Current Time: Dec 19, 2014 at 10:36:21 PM

Latest Report: Dec 19, 2014 at 10:00 PM


Visibility: N/A

Pressure: 29.86 "Hg

Humidity: 79%

Dew point: 73 °F

Location of LautokaLocation

Historic Weather in Lautoka — Graph

°F

Lautoka temperature yesterday

Maximum temperature yesterday: 91 °F (at 2:00 PM)
Minimum temperature yesterday: 75 °F (at 7:00 AM)
Average temperature yesterday: 83 °F

Past Weeks' High & Low Weather Summary

 TemperatureHumidityPressure
High91 °F (Dec 13, 2:00 PM)100% (Dec 5, 7:00 AM)29.92 "Hg (Dec 5, 7:00 AM)
Low72 °F (Dec 5, 7:00 AM)46% (Dec 13, 3:00 PM)29.74 "Hg (Dec 15, 5:00 PM)
Average81 °F77%29.84 "Hg
* Reported Dec 4 9:00 PM — Dec 19 9:00 PM, Lautoka, Weather by CustomWeather, © 2014

Note: Actual official high and low records may vary slightly from our data, if they occured in-between our weather recording intervals... More about our weather records

Advertising

Lautoka weather history for previous 24 hours

 ConditionsComfort  
Time TempWeatherWind HumidityBarometerVisibility
9:00 PM
Dec 19
81 °FPartly cloudy.3 mph84%29.83 "HgN/A
8:00 PM82 °FPartly cloudy.3 mph79%29.80 "HgN/A
7:00 PM86 °FBroken clouds.6 mph66%29.80 "HgN/A
6:00 PM84 °FBroken clouds.3 mph70%29.77 "HgN/A
5:00 PM84 °FBroken clouds.8 mph74%29.74 "HgN/A
4:00 PM84 °FBroken clouds.9 mph74%29.74 "HgN/A
3:00 PM82 °FBroken clouds.7 mph84%29.77 "HgN/A
2:00 PM81 °FThunderstorms. Broken clouds.13 mph89%29.80 "HgN/A
1:00 PM86 °FScattered clouds.9 mph70%29.80 "HgN/A
12:00 PM91 °FScattered clouds.6 mph56%29.83 "HgN/A
11:00 AM90 °FScattered clouds.3 mph59%29.83 "HgN/A
10:00 AM86 °FBroken clouds.3 mph70%29.86 "HgN/A
9:00 AM82 °FScattered showers. Broken clouds.3 mph74%29.86 "HgN/A
8:00 AM77 °FScattered clouds.5 mph89%29.83 "HgN/A
7:00 AM75 °FScattered clouds.5 mph100%29.83 "HgN/A
6:00 AM77 °FPassing clouds.3 mph89%29.80 "HgN/A
5:00 AM77 °FPassing clouds.No wind89%29.80 "HgN/A
4:00 AM75 °FPassing clouds.No wind100%29.80 "HgN/A
3:00 AM77 °FPassing clouds.No wind94%29.80 "HgN/A
2:00 AM77 °FPassing clouds.5 mph89%29.83 "HgN/A
1:00 AM77 °FPassing clouds.6 mph94%29.86 "HgN/A
12:00 AM79 °FPassing clouds.3 mph89%29.89 "HgN/A
11:00 PM
Dec 18
81 °FPassing clouds.3 mph84%29.89 "HgN/A
10:00 PM81 °FPassing clouds.6 mph84%29.86 "HgN/A
Weather by CustomWeather, © 2014

See weather overviewHow to use our weather pages